This is the latest recevied weather packets stored in our database for station/object AB4KN. If no packets are shown the sender has not sent any weather packets the latest 10 day(s).
| Time | Temp. | Humidity | Pressure | Rain* | Wind** | Luminosity | Snow |
|---|---|---|---|---|---|---|---|
| 1777847230 | 21.11° C | 32% | 1022.1 hPa | 0 mm | - | 14 W/m² | - |
| 1777846928 | 21.11° C | 31% | 1022 hPa | 0 mm | - | 14 W/m² | - |
| 1777846626 | 21.11° C | 35% | 1022.2 hPa | 0 mm | - | 14 W/m² | - |
| 1777846323 | 21.11° C | 32% | 1022.2 hPa | 0 mm | - | 14 W/m² | - |
| 1777846020 | 21.11° C | 33% | 1022.1 hPa | 0 mm | - | 15 W/m² | - |
| 1777845716 | 21.11° C | 31% | 1022.2 hPa | 0 mm | - | 16 W/m² | - |
| 1777845413 | 21.67° C | 31% | 1022.2 hPa | 0 mm | - | 16 W/m² | - |
| 1777845110 | 21.11° C | 33% | 1022 hPa | 0 mm | - | 17 W/m² | - |
| 1777844809 | 21.11° C | 32% | 1022.1 hPa | 0 mm | - | 17 W/m² | - |
| 1777844504 | 21.67° C | 32% | 1022.1 hPa | 0 mm | - | 17 W/m² | - |
| 1777844204 | 21.67° C | 33% | 1022.2 hPa | 0 mm | - | 18 W/m² | - |
| 1777843900 | 21.11° C | 36% | 1022.3 hPa | 0 mm | - | 18 W/m² | - |
| 1777843597 | 21.11° C | 35% | 1022.3 hPa | 0 mm | - | 19 W/m² | - |
| 1777843295 | 21.11° C | 34% | 1022.4 hPa | 0 mm | - | 62 W/m² | - |
| 1777842993 | 21.67° C | 32% | 1022.6 hPa | 0 mm | - | 21 W/m² | - |
| 1777842687 | 21.67° C | 36% | 1022.5 hPa | 0 mm | - | 20 W/m² | - |
| 1777842384 | 21.67° C | 32% | 1022.4 hPa | 0 mm | - | 19 W/m² | - |
| 1777842081 | 21.67° C | 32% | 1022.4 hPa | 0 mm | - | 20 W/m² | - |
| 1777841776 | 21.67° C | 32% | 1022.4 hPa | 0 mm | - | 20 W/m² | - |
| 1777841473 | 21.67° C | 32% | 1022.6 hPa | 0 mm | - | 21 W/m² | - |
| 1777841170 | 21.11° C | 32% | 1022.7 hPa | 0 mm | - | 21 W/m² | - |
| 1777840867 | 21.67° C | 34% | 1022.9 hPa | 0 mm | - | 22 W/m² | - |
| 1777840564 | 21.67° C | 34% | 1022.7 hPa | 0 mm | - | 22 W/m² | - |
| 1777840261 | 21.11° C | 35% | 1022.9 hPa | 0 mm | - | 22 W/m² | - |
| 1777839959 | 21.11° C | 34% | 1022.7 hPa | 0 mm | - | 23 W/m² | - |
* Rain latest hour (hover to see other rain measurements)
** Current wind speed in m/s (hover to see current wind gust speed)